カタログに戻る

STARLINK-37857

運用中通信SSO
NORAD 69429·PAYLOAD·🇺🇸 United States

打ち上げ Jun 7, 2026 から Vandenberg Space Force Base

Loading…

次のパス (今後24時間)

TLE

最新Source: CelesTrak SupGP

元期: Sep 14, 2026, 21:31 UTC

1 69429C 26126K   26257.89701389  .00029910  00000+0  92889-3 0  2570
2 69429  97.2846 119.2291 0002300  96.5714  21.5714 15.33408713    16

AllMySatでSTARLINK-37857をリアルタイム追跡

Download on the App Store